FW6020 Weather Reports


Display with metric or nautical units.
time (UTC)temp
F
wind
direction
speed
MPH
gust
MPH
rain 1hr
in
rain 24hr
in
rain mn
in
humidity
%
barometer
mb
20260504081916 47 135 1.0 3.0 0.00 0.00 0.00 61 1008.2
20260504080916 47 113 3.0 4.0 0.00 0.00 0.00 61 1008.2
20260504045916 47 158 4.0 7.0 0.00 0.00 0.00 48 1008.7
20260504044916 47 158 4.0 6.0 0.00 0.00 0.00 48 1008.8
20260504043916 47 158 4.0 5.0 0.00 0.00 0.00 47 1008.9
20260504042916 46 158 4.0 6.0 0.00 0.00 0.00 46 1008.9
20260504041916 45 113 4.0 8.0 0.00 0.00 0.00 47 1009.0
20260504040916 45 158 3.0 6.0 0.00 0.00 0.00 48 1009.0
20260504035916 45 135 3.0 5.0 0.00 0.00 0.00 44 1009.1
20260504034917 45 135 2.0 6.0 0.00 0.00 0.00 45 1008.9
20260504033916 44 135 3.0 4.0 0.00 0.00 0.00 44 1009.0
20260504032916 44 158 2.0 4.0 0.00 0.00 0.00 45 1009.1
20260504031916 43 158 2.0 3.0 0.00 0.00 0.00 45 1009.1
20260504030916 43 158 3.0 4.0 0.00 0.00 0.00 45 1009.1
20260504025936 43 135 3.0 3.0 0.00 0.00 0.00 46 1009.1
20260504024916 42 135 2.0 4.0 0.00 0.00 0.00 47 1009.2
20260504023936 43 0.0 0.0 0.00 0.00 0.00 47 1009.1
20260504022916 44 158 1.0 2.0 0.00 0.00 0.00 44 1009.3
20260504021916 44 158 2.0 3.0 0.00 0.00 0.00 46 1009.5
20260504020916 44 0.0 0.0 0.00 0.00 0.00 46 1009.4
20260504015916 45 135 2.0 2.0 0.00 0.00 0.00 46 1009.4
20260504014916 45 158 3.0 4.0 0.00 0.00 0.00 44 1009.5
20260504013916 45 158 2.0 3.0 0.00 0.00 0.00 44 1009.6
20260504012935 44 158 2.0 3.0 0.00 0.00 0.00 47 1009.6
20260504011915 44 158 2.0 2.0 0.00 0.00 0.00 48 1009.5
20260504010916 44 158 2.0 3.0 0.00 0.00 0.00 49 1009.5
20260504005916 43 0.0 0.0 0.00 0.01 0.00 50 1009.3
20260504004916 45 0.0 0.0 0.00 0.01 0.00 47 1009.2
20260504003915 45 0.0 0.0 0.00 0.01 0.00 47 1009.2
20260504002916 46 0.0 0.0 0.00 0.01 0.00 46 1009.2
20260504001936 46 0.0 0.0 0.00 0.01 0.00 48 1009.1
20260504000915 46 0.0 0.0 0.00 0.01 0.00 48 1009.1
20260503235916 47 0.0 0.0 0.00 0.02 0.00 45 1008.9
20260503234916 49 0.0 0.0 0.00 0.02 0.00 43 1009.1
20260503233935 51 0.0 1.0 0.00 0.03 0.00 41 1009.0
20260503232915 52 158 1.0 3.0 0.00 0.03 0.00 39 1009.1
20260503231915 53 0.0 1.0 0.00 0.03 0.00 39 1009.1
20260503230915 53 158 3.0 5.0 0.00 0.03 0.00 38 1009.1
20260503225917 54 135 1.0 2.0 0.00 0.04 0.00 37 1009.1
20260503224917 54 158 2.0 3.0 0.00 0.04 0.00 35 1009.1
20260503223917 52 158 1.0 2.0 0.00 0.04 0.00 32 1009.0
20260503222917 52 180 1.0 2.0 0.00 0.04 0.00 34 1009.0
20260503221917 52 225 4.0 6.0 0.00 0.04 0.00 32 1009.1
20260503220917 52 203 2.0 3.0 0.00 0.04 0.00 36 1009.1
20260503215938 52 225 2.0 4.0 0.00 0.04 0.00 36 1009.2
20260503214917 52 180 1.0 2.0 0.00 0.05 0.00 33 1009.1
20260503213917 52 203 1.0 3.0 0.00 0.05 0.00 36 1009.1
20260503212937 52 0.0 1.0 0.00 0.05 0.00 37 1009.1
20260503211918 52 180 1.0 4.0 0.00 0.05 0.00 34 1009.2
20260503210917 52 180 2.0 5.0 0.00 0.05 0.00 36 1009.1
20260503205917 52 203 3.0 5.0 0.00 0.05 0.00 34 1009.1
20260503204937 52 158 2.0 5.0 0.00 0.06 0.00 34 1009.1
20260503203917 52 0.0 1.0 0.00 0.06 0.00 38 1009.2
20260503202917 52 135 1.0 3.0 0.00 0.06 0.00 36 1009.3
20260503201917 52 203 1.0 3.0 0.00 0.06 0.00 35 1009.3
20260503201038 52 180 2.0 4.0 0.00 0.06 0.00 38 1009.5
20260503195917 51 68 2.0 4.0 0.00 0.06 0.00 37 1009.5
20260503194917 51 180 1.0 2.0 0.00 0.06 0.00 35 1009.7
20260503193917 51 338 1.0 3.0 0.00 0.06 0.00 37 1009.8
20260503192949 51 0.0 0.0 0.00 0.06 0.00 39 1009.9
20260503192137 51 180 1.0 2.0 0.00 0.06 0.00 41 1010.0
20260503191118 50 180 2.0 4.0 0.00 0.06 0.00 39 1010.1
20260503190117 49 180 1.0 2.0 0.00 0.06 0.00 40 1010.1
20260503185117 50 203 4.0 6.0 0.00 0.06 0.00 39 1010.3
20260503184117 50 203 4.0 7.0 0.00 0.06 0.00 38 1010.3
20260503183117 50 225 3.0 5.0 0.00 0.06 0.00 38 1010.4
20260503182117 51 180 1.0 2.0 0.00 0.06 0.00 40 1010.4
20260503181117 50 203 1.0 3.0 0.00 0.07 0.00 43 1010.6
20260503180117 50 180 1.0 2.0 0.00 0.08 0.00 41 1010.6
20260503175117 50 225 2.0 4.0 0.00 0.08 0.00 41 1010.6
20260503174117 50 135 1.0 4.0 0.00 0.08 0.00 43 1010.7
20260503173117 49 203 2.0 5.0 0.00 0.08 0.00 41 1010.7
20260503172138 50 203 4.0 7.0 0.00 0.08 0.00 39 1010.8
20260503171117 50 113 2.0 4.0 0.00 0.08 0.00 42 1010.8
20260503170117 49 0.0 1.0 0.00 0.08 0.00 43 1010.9
20260503160117 49 338 3.0 5.0 0.00 0.08 0.00 39 1011.5
20260503150116 48 203 1.0 2.0 0.00 0.08 0.00 53 1012.0
20260503140117 47 248 3.0 5.0 0.00 0.08 0.00 58 1012.4
20260503131116 46 338 2.0 4.0 0.00 0.08 0.00 57 1012.4
20260503130116 46 180 1.0 4.0 0.00 0.08 0.00 60 1012.5
20260503120116 44 158 1.0 3.0 0.00 0.10 0.00 62 1012.6